Location: Rimouski
(48.4330°N, 68.5170°W)
Time: 13:17:42
(UTC-04:00)

Daily predictions for brighter satellites

Satellite Brightness Start Highest point End
(mag) Time Altitude Azimuth Time Altitude Azimuth Time Altitude Azimuth
BREEZE-M DEB (TANK) 4.4 19:43:18 10° SW 19:47:50 48° SE 20:04:23 10° ENE
COSMOS 2428 2.7 19:58:47 10° SSW 20:04:28 69° ESE 20:10:10 10° NNE
Cosmos 1809 Rocket 4.5 19:58:55 10° S 20:05:03 74° E 20:11:15 10° NNE
Resurs 1-3 3.7 20:01:25 10° SSE 20:05:45 64° ENE 20:10:07 10° N
Cosmos 1844 4.0 20:00:22 10° NNW 20:06:03 75° WSW 20:11:46 10° SSE
Cosmos 2333 4.2 20:00:30 10° SSW 20:06:07 73° ESE 20:11:43 10° NNE
Cosmos 1151 Rocket 4.0 20:03:03 10° SE 20:06:37 26° E 20:10:12 10° NNE
ERS-2 2.4 20:03:59 10° S 20:07:38 72° WSW 20:11:20 10° NNW
CZ-2D R/B 4.1 20:04:27 10° S 20:08:11 54° W 20:11:57 10° NNW
Cosmos 2251 Rocket 4.1 20:03:21 10° NNW 20:08:41 63° WSW 20:13:57 10° S
Cosmos 1455 2.6 20:05:09 10° SSE 20:08:47 42° E 20:12:28 10° NNE
Cosmos 1892 2.8 20:08:47 10° N 20:12:43 84° W 20:16:36 10° S
Envisat 3.6 20:07:57 10° S 20:12:59 60° W 20:18:01 10° NNW
USA 186 1.1 20:11:12 10° S 20:13:27 73° W 20:15:46 10° NNW
Cosmos 2219 Rocket 2.3 20:08:35 10° S 20:14:07 58° ESE 20:19:40 10° NE
Meteor 2-2 Rocket 4.3 20:08:26 10° S 20:14:16 73° E 20:20:14 10° NNE
Cosmos 2237 Rocket 2.9 20:11:20 10° SSE 20:16:13 31° ESE 20:21:08 10° NE
Nadezhda 3 Rocket 4.2 20:13:12 10° N 20:19:31 82° W 20:25:52 10° S
USA 234 4.3 20:14:11 10° ENE 20:20:15 42° N 20:26:19 10° WNW
YAOGAN 6 2.8 20:17:01 10° S 20:20:38 76° WSW 20:24:18 10° NNW
Meteor 2-14 Rocket 4.4 20:15:28 10° S 20:21:32 75° E 20:27:40 10° NNE
SJ-11-01 4.3 20:17:04 10° SSE 20:21:44 76° ENE 20:26:25 10° N
Cosmos 2278 Rocket 2.3 20:16:12 10° NNW 20:21:53 70° ENE 20:27:33 10° SE
ATLAS 5 CENTAUR R/B 4.1 20:19:52 10° NNW 20:23:53 20° NNE 20:28:13 10° ENE
Cosmos 1633 Rocket 3.3 20:20:34 10° NNW 20:24:54 72° W 20:29:14 10° S
Genesis I 3.6 20:21:39 10° NW 20:25:44 66° SW 20:29:45 10° SSE
NOAA 11 4.2 20:25:36 10° SSE 20:31:04 73° ENE 20:36:35 10° N
Cosmos 2098 Rocket 4.0 20:27:35 10° SSE 20:31:16 25° E 20:34:22 10° NE
Meteor 2-16 Rocket 4.4 20:25:29 10° S 20:31:35 74° E 20:37:42 10° NNE
Terra 4.0 20:32:30 10° ENE 20:33:27 11° NE 20:34:23 10° NE
BREEZE-M DEB (TANK) 3.7 20:34:22 10° WNW 20:38:45 33° SW 20:40:37 14° SSE
NOSS 2-1 (C) 3.7 20:35:39 10° SW 20:39:18 67° NW 20:43:35 10° NE
Thor Agena Rocket 3.9 20:34:23 10° NNE 20:39:37 74° WNW 20:44:53 10° SSW
Cosmos 1515 Rocket 3.6 20:35:27 10° S 20:39:50 60° E 20:44:15 10° NNE
NOSS 2-1 (D) 3.8 20:36:39 10° SW 20:40:17 64° NW 20:44:35 10° NE
Cosmos 1340 4.2 20:37:41 10° SW 20:41:16 40° WNW 20:44:53 10° N
Cosmos 405 4.0 20:38:29 10° N 20:41:36 29° ENE 20:43:32 17° ESE
Cosmos 2228 Rocket 3.0 20:40:12 10° S 20:44:34 67° E 20:48:57 10° NNE
ATLAS 2AS CENTAUR R/B 3.4 20:36:53 10° NW 20:44:43 62° WSW 20:51:55 10° SSE
Lacrosse 5 3.3 20:41:09 10° NW 20:45:43 32° N 20:50:18 10° ENE
Cosmos 1825 2.1 20:47:38 10° N 20:51:28 82° E 20:54:53 12° SSE
SPOT 5 4.0 20:49:20 16° ESE 20:51:49 24° ENE 20:55:24 10° N
Spot 2 Rocket 4.0 20:50:46 10° S 20:55:49 61° WSW 21:00:53 10° NNW
USA 245 3.9 20:56:28 18° ENE 20:56:32 18° ENE 20:58:16 10° NNE
Cosmos 1328 Rocket 4.1 20:54:19 10° SSW 20:58:42 63° WNW 21:03:08 10° N
ATLAS CENTAUR R/B 1.1 20:57:36 10° SW 21:01:18 88° NW 21:05:14 10° NE
SL-8 R/B 4.1 20:57:09 10° SW 21:01:37 40° SSE 21:05:29 13° E
SL-16 R/B 2.8 21:01:33 11° SSE 21:06:20 33° ESE 21:11:20 10° NE
Cosmos 1470 Rocket 4.5 21:03:44 10° NNW 21:07:59 48° W 21:12:14 10° SSW
Cosmos 1727 Rocket 4.0 21:02:19 10° N 21:08:31 70° E 21:13:28 16° SSE
Resurs 01 Rocket 3.3 21:04:47 10° SSW 21:08:47 33° W 21:12:49 10° NNW
Cosmos 1943 Rocket 4.1 21:05:42 10° N 21:09:14 17° NE 21:12:46 10° ENE
ARGOS 3.1 21:06:46 16° SSE 21:11:04 80° ENE 21:16:27 10° NNW
Cosmos 1959 Rocket 4.4 21:04:58 10° S 21:11:08 80° E 21:17:16 10° N
MetOp-B 4.1 21:09:45 18° SSE 21:13:45 76° ENE 21:19:07 10° NNW
NOSS 3-4 (A) 3.8 21:08:20 10° NW 21:15:19 86° NE 21:20:26 22° SE
BREEZE-M DEB (TANK) 2.4 21:08:59 10° W 21:15:23 74° N 21:16:53 25° E
NOSS 3-4 (C) 3.8 21:08:26 10° NW 21:15:25 85° NE 21:20:32 22° SE
Cosmos 1933 4.5 21:18:39 25° E 21:18:58 25° E 21:22:21 10° NNE
SL-08 RB Rocket 3.6 21:18:27 24° SSE 21:21:06 77° ENE 21:25:35 10° N
Cosmos 1869 3.4 21:20:01 10° SSW 21:24:02 78° W 21:28:05 10° N
NOSS 3-3 (C) 4.5 21:19:11 10° SW 21:25:18 65° NW 21:32:09 10° NE
NOSS 0 Rocket 4.2 21:19:47 10° SW 21:25:58 74° WNW 21:32:13 10° NNE
USA 267 3.9 21:20:55 10° ENE 21:26:28 29° SE 21:32:00 10° S
Meteor 2-10 Rocket 3.7 21:21:26 10° S 21:27:09 78° E 21:33:01 10° NNE
Cosmos 2218 Rocket 4.2 21:22:09 10° SSW 21:28:30 78° W 21:34:58 10° N
USA 81 4.0 21:23:37 10° N 21:28:56 83° E 21:32:21 23° S
Cosmos 614 Rocket 4.1 21:25:34 10° NNW 21:30:46 60° ENE 21:33:07 32° SE
Cosmos 407 Rocket 3.5 21:26:14 10° NNW 21:31:23 77° WSW 21:34:17 26° SSE
SPOT 1/Viking Rocket 3.8 21:29:01 29° SE 21:31:28 54° ENE 21:36:33 10° N
Cosmos 1980 4.0 21:26:55 10° SW 21:32:36 69° WNW 21:38:17 10° NNE
ERS-1 Rocket 2.9 21:30:08 26° SSE 21:33:05 89° ENE 21:38:09 10° NNW
Cosmos 2297 3.7 21:28:35 10° NNW 21:34:17 83° WSW 21:37:25 28° SSE
H-2A R/B 2.0 21:36:33 24° S 21:39:37 76° WSW 21:44:36 10° NNW
Cosmos 2366 rocket 4.2 21:33:49 10° SSW 21:40:01 71° W 21:46:21 10° N
Cosmos 2369 Rocket 3.4 21:35:52 10° NNW 21:40:57 31° NE 21:43:31 22° E
Cosmos 2333 Rocket 3.6 21:38:21 10° WSW 21:43:40 41° NW 21:49:00 10° NNE
Cosmos 1371 Rocket 4.2 21:39:07 10° SSW 21:44:26 75° WNW 21:49:50 10° NNE
Cosmos 1441 Rocket 3.0 21:45:32 47° S 21:46:32 82° E 21:50:18 10° NNE
Helios 1B rocket 2.8 21:44:45 10° NNE 21:48:43 44° E 21:48:47 44° ESE
Cosmos 676 Rocket 4.0 21:46:12 10° NNW 21:51:30 82° WSW 21:53:37 37° SSE
Landsat 7 3.9 21:51:06 43° SE 21:52:30 64° ENE 21:57:13 10° N
Spot 1 4.4 21:52:25 43° SE 21:53:55 67° ENE 21:58:36 10° N
Cosmos 1707 Rocket 3.4 21:53:00 46° S 21:54:13 76° E 21:58:33 10° NNE
CZ-4C R/B 3.2 21:59:36 27° E 21:59:36 27° E 22:03:20 10° NE
Cosmos 2219 Rocket 4.2 21:53:31 10° WSW 21:58:26 30° NW 22:03:21 10° NNE
CZ-2C R/B 4.2 21:54:45 10° NE 21:58:01 19° E 21:58:01 19° E
Cosmos 1869 Rocket 4.1 21:54:46 10° NNW 21:59:03 53° W 22:00:54 30° SSW
Cosmos 2237 Rocket 3.2 21:54:39 10° SW 22:00:04 48° NW 22:05:33 10° NNE
USA 234 3.6 21:58:19 22° E 22:02:41 60° NNE 22:09:05 10° NW
Cosmos 1023 Rocket 4.5 21:58:17 10° NNW 22:03:28 76° WSW 22:05:09 43° S
Cosmos 2278 Rocket 4.2 22:01:16 10° NW 22:05:24 21° W 22:09:31 10° SSW
Cosmos 2056 Rocket 4.0 22:00:36 10° SW 22:05:59 64° WNW 22:11:22 10° NNE
Cosmos 1452 Rocket 3.5 22:05:39 47° SSE 22:06:49 59° ESE 22:11:59 10° NNE
YAOGAN 11 4.3 22:06:44 50° E 22:07:08 52° ENE 22:11:20 10° N
Cosmos 1862 4.4 22:04:31 10° NNW 22:08:20 40° W 22:09:44 29° SW
RESURS DK-1 3.6 22:06:10 10° NNW 22:09:52 30° NE 22:10:20 29° ENE
ATLAS 5 CENTAUR R/B 3.0 22:04:22 10° NW 22:09:53 47° NE 22:12:37 30° E
Helios 1A 3.6 22:08:42 38° SSW 22:09:54 51° W 22:14:01 10° NNW
Terra 1.9 22:09:24 53° ESE 22:10:16 64° ENE 22:15:00 10° N
Cosmos 1733 Rocket 3.0 22:06:08 10° N 22:10:32 63° ENE 22:10:52 61° ESE
CARTOSAT-1 3.4 22:11:25 65° ESE 22:11:52 71° ENE 22:16:12 10° N
Cosmos 1437 Rocket 2.7 22:09:57 10° N 22:13:44 74° ENE 22:13:44 74° ENE
Cosmos 405 Rocket 3.5 22:15:05 34° SW 22:16:22 50° WNW 22:20:14 10° N
Meteor 1-20 Rocket 4.2 22:16:01 10° N 22:21:27 61° ENE 22:22:28 52° ESE
Cosmos 1850 Rocket 3.9 22:16:56 10° NNW 22:22:08 75° ENE 22:23:02 59° SE
Cosmos 1140 Rocket 4.0 22:20:44 10° NNW 22:25:44 50° WSW 22:27:07 40° SSW
Lacrosse 5 2.1 22:24:23 10° NW 22:29:26 64° NNE 22:30:32 50° E
SPOT 5 3.5 22:28:34 36° SW 22:29:43 43° W 22:33:59 10° NNW
Cosmos 1741 Rocket 3.9 22:24:31 10° NNW 22:29:54 84° ENE 22:30:46 63° SE
SeaSat 1 4.4 22:29:15 16° ENE 22:31:13 20° NE 22:34:45 10° N
Cosmos 2242 Rocket 3.5 22:34:41 76° ENE 22:34:41 76° ENE 22:38:54 10° NNE
Cosmos 1934 Rocket 3.8 22:33:03 49° S 22:34:47 82° E 22:40:52 10° N
IGS 5A 3.6 22:35:30 66° WSW 22:35:34 66° W 22:39:45 10° NNW
GEOS 3 Rocket 3.7 22:32:56 10° NE 22:38:20 79° NW 22:43:38 10° SW
ATLAS CENTAUR R/B 4.2 22:38:18 10° WNW 22:40:53 17° NNW 22:43:37 10° NNE
Cosmos 1633 3.4 22:37:22 10° N 22:40:03 48° NNW 22:40:03 48° NNW
Nimbus 7 Rocket 4.3 22:37:51 10° NNE 22:43:47 76° ESE 22:44:54 59° S
SL-8 R/B 3.6 22:39:06 10° WSW 22:43:31 75° WSW 22:43:31 75° WSW
Meteor 1-4 Rocket 3.7 22:43:15 10° NNW 22:45:41 41° NNW 22:45:41 41° NNW
CZ-2C R/B 2.7 22:49:11 86° SSE 22:49:17 90° ESE 22:54:09 10° NNW
SL-16 R/B 3.1 22:44:51 10° SW 22:50:17 47° NW 22:55:46 10° NNE
Cosmos 1943 Rocket 2.1 22:48:31 10° NNW 22:54:03 69° ENE 22:54:37 64° E
Cosmos 2344 3.6 22:46:55 10° SW 22:54:31 89° SE 23:03:19 10° NE
Meteor 1-11 Rocket 4.2 22:57:42 10° N 23:03:10 46° ENE 23:03:27 46° E
Cosmos 1908 Rocket 3.8 22:59:20 10° N 23:03:14 68° NNW 23:03:14 68° NNW
Cosmos 2100 Rocket 4.5 23:06:06 44° E 23:06:21 44° E 23:12:21 10° NNE
H-2A R/B 3.5 23:08:17 30° NE 23:08:17 30° NE 23:11:53 10° N
USA 267 3.1 23:03:29 10° NE 23:10:04 85° SE 23:16:38 10° SW
Cosmos 1862 Rocket 4.2 23:10:35 51° WNW 23:10:35 51° WNW 23:14:49 10° N
Cosmos 389 Rocket 4.4 23:07:26 10° N 23:09:15 29° N 23:09:15 29° N
Cosmos 1782 3.9 23:17:31 42° N 23:17:31 42° N 23:20:14 10° N
Meteor 1-27 Rocket 4.3 23:17:13 44° E 23:17:13 44° E 23:22:21 10° NNE
Cosmos 1603 3.7 23:16:16 64° WSW 23:17:05 77° WNW 23:22:44 10° NNE
ALOS 2 3.7 23:20:55 36° NE 23:20:55 36° NE 23:24:16 10° N
Cosmos 1943 3.2 23:21:18 68° E 23:21:18 68° E 23:26:32 10° NNE
Cosmos 1606 4.0 23:22:09 39° NNW 23:22:09 39° NNW 23:24:55 10° N
Cosmos 921 Rocket 3.8 23:25:01 51° NNW 23:25:01 51° NNW 23:28:40 10° NNE
Cosmos 2369 Rocket 2.5 23:19:43 10° NW 23:25:16 54° WSW 23:25:18 54° WSW
Cosmos 1486 Rocket 4.3 23:20:56 10° NNW 23:26:02 56° ENE 23:26:02 56° ENE
Cosmos 2263 4.2 23:20:32 10° NNW 23:26:03 71° WSW 23:26:03 71° WSW
Cosmos 1536 4.5 23:22:29 10° N 23:24:52 28° NNE 23:24:52 28° NNE
SL-19 R/B 4.4 23:27:59 10° NNE 23:34:05 69° ESE 23:34:12 69° ESE
ADEOS Rocket 4.2 23:28:57 10° NNE 23:35:00 31° E 23:35:01 31° E
CZ-2C R/B 2.7 23:34:01 10° N 23:39:20 69° WNW 23:39:33 69° W
Meteor 1-5 Rocket 4.2 23:36:05 10° N 23:41:06 66° NE 23:41:06 66° NE
Cosmos 1110 Rocket 4.1 23:42:56 74° N 23:42:56 74° N 23:47:49 10° NNE
Cosmos 2173 Rocket 3.9 23:43:59 75° ESE 23:44:10 75° E 23:50:30 10° NNE
USA 234 3.2 23:45:38 62° SW 23:45:42 62° SW 23:52:12 10° WNW
CZ-4C R/B 2.7 23:44:41 42° W 23:46:22 59° NW 23:52:35 10° NE
RESURS DK-1 4.3 23:44:10 10° NW 23:46:14 24° WNW 23:46:14 24° WNW
Terra 3.9 23:48:17 17° W 23:48:27 18° W 23:51:38 10° NW
Cosmos 1271 Rocket 4.4 23:48:58 10° NNW 23:51:14 33° NNW 23:51:14 33° NNW
